Regional Weather Roundup
Issued by NWS

Home | Current Version | Previous Version | Text Only | Print | Product List | Glossary On
Versions: 1 2 3 4 5 6 7 8 9 10 11 12 13 14 15 16 17 18 19 20 21 22 23 24 25 26 27 28 29 30 31 32 33 34 35 36 37 38 39 40 41 42 43 44 45 46 47 48 49 50
000
ASUS44 KFWD 191801
RWRTX
NORTH TEXAS HOURLY WEATHER ROUNDUP
NATIONAL WEATHER SERVICE FORT WORTH TX
100 PM CDT SAT AUG 19 2017

NOTE: "FAIR" INDICATES FEW OR NO CLOUDS BELOW 12,000 FEET WITH NO
SIGNIFICANT WEATHER AND/OR OBSTRUCTIONS TO VISIBILITY.

TXZ118-119-191900-
DALLAS/FORT WORTH METROPLEX

CITY           SKY/WX    TMP DP  RH WIND       PRES   REMARKS
DFW AIRPORT    MOSUNNY   96  71  44 VRB7      29.98F HX 103
6HR MIN TEMP:  78; 6HR MAX TEMP:  96;

DALLAS LOVE    MOSUNNY   95  69  42 SW8       29.98F HX 100
6HR MIN TEMP:  80; 6HR MAX TEMP:  95;

FTW MEACHAM    SUNNY     95  73  48 SW7       29.99F HX 104
6HR MIN TEMP:  76; 6HR MAX TEMP:  95;

DAL-EXECUTIVE  SUNNY     95  70  44 W9        29.99F HX 101
6HR MIN TEMP:  78; 6HR MAX TEMP:  95;

FTW-ALLIANCE   SUNNY     94  73  50 SW7       29.99F HX 103
6HR MIN TEMP:  75; 6HR MAX TEMP:  95;

FTW-NAS-JRB    MOSUNNY   95  72  47 CALM      29.99F HX 103
6HR MIN TEMP:  77; 6HR MAX TEMP:  95;

FTW-SPINKS     SUNNY     95  70  43 SW5       30.01F HX 101
ARLINGTON      SUNNY     94  71  47 SW7       29.99F HX 101
6HR MIN TEMP:  76; 6HR MAX TEMP:  94;

GRAND PRAIRIE  SUNNY     93  66  40 W10       30.00F HX  96
ADDISON        SUNNY     93  70  46 SW8       30.00F HX  99
MESQUITE       SUNNY     93  70  46 SW7       30.00F HX  99
LANCASTER      SUNNY     94  69  44 W3        30.00F HX  98
6HR MIN TEMP:  74; 6HR MAX TEMP:  94;

$$

TXZ091>094-102>105-117-120-121-131>134-191900-
NORTH CENTRAL TEXAS

CITY           SKY/WX    TMP DP  RH WIND       PRES   REMARKS
SHRMAN/DENISON SUNNY     92  74  54 SW7       30.00F HX 102
6HR MIN TEMP:  75; 6HR MAX TEMP:  92;

GAINESVILLE    SUNNY     94  72  48 SW8       30.00F HX 101
6HR MIN TEMP:  73; 6HR MAX TEMP:  94;

BOWIE          SUNNY     94  72  48 SW7       30.00F HX 101
6HR MIN TEMP:  73; 6HR MAX TEMP:  94;

BRIDGEPORT     SUNNY     93  73  52 S8        30.01F HX 101
6HR MIN TEMP:  72; 6HR MAX TEMP:  93;

DECATUR        SUNNY     92  73  53 SW7       30.01F HX 100
6HR MIN TEMP:  77; 6HR MAX TEMP:  92;

DENTON         SUNNY     94  74  52 SW10      29.98F HX 104
6HR MIN TEMP:  73; 6HR MAX TEMP:  94;

MCKINNEY       SUNNY     94  74  52 SW10      29.99F HX 104
6HR MIN TEMP:  74; 6HR MAX TEMP:  94;

BONHAM         SUNNY     91  73  55 SW10      29.99F HX 100
ROCKWALL       SUNNY     92  72  51 W7        30.00F HX 100
6HR MIN TEMP:  77; 6HR MAX TEMP:  92;

TERRELL        SUNNY     93  71  48 SW7       30.00F HX 100
6HR MIN TEMP:  76; 6HR MAX TEMP:  93;

WAXAHACHIE     SUNNY     94  70  45 SW6       30.01F HX 100
6HR MIN TEMP:  74; 6HR MAX TEMP:  94;

CLEBURNE       SUNNY     93  68  43 SW10      30.02F HX  97
$$

TXZ083>090-098>101-113>116-127>130-139>142-154-155-191900-
WESTERN NORTH TEXAS

CITY           SKY/WX    TMP DP  RH WIND       PRES   REMARKS
WICHITA FALLS  SUNNY     94  71  47 NW5       29.97F HX 101
6HR MIN TEMP:  72; 6HR MAX TEMP:  95;

WF-KICKAPOO    SUNNY     95  71  44 SW7       30.00F HX 102
6HR MIN TEMP:  74; 6HR MAX TEMP:  95;

VERNON         SUNNY     94  65  38 S6        29.99F HX  97
6HR MIN TEMP:  75; 6HR MAX TEMP:  94;

ABILENE        SUNNY     90  70  51 SW7       30.05F HX  95
6HR MIN TEMP:  73; 6HR MAX TEMP:  91;

BRECKENRIDGE   MOSUNNY   96  67  38 S9        30.01F HX  99
6HR MIN TEMP:  76; 6HR MAX TEMP:  97;

CISCO          SUNNY     93  72  49 SW13      30.05F HX 100
EASTLAND       MOSUNNY   94  70  45 W8        30.03F HX 100
6HR MIN TEMP:  72; 6HR MAX TEMP:  95;

RANGER         SUNNY     91  70  49 SW7       30.04F HX  96
6HR MIN TEMP:  67; 6HR MAX TEMP:  93;

MINERAL WELLS  SUNNY     94  70  45 W12       29.99F HX 100
6HR MIN TEMP:  72; 6HR MAX TEMP:  95;

STEPHENVILLE   SUNNY     92  68  44 CALM      30.06F HX  96
6HR MIN TEMP:  74; 6HR MAX TEMP:  92;

COMANCHE       SUNNY     96  65  36 CALM      30.04F HX  99
6HR MIN TEMP:  77; 6HR MAX TEMP:  96;

BROWNWOOD      LGT RAIN  93  66  40 W5        30.04F HX  96
COLEMAN        SUNNY     94  67  40 SW6       30.05F HX  97
6HR MIN TEMP:  74; 6HR MAX TEMP:  94;

$$

TXZ143>147-156>162-174-175-191900-
CENTRAL TEXAS

CITY           SKY/WX    TMP DP  RH WIND       PRES   REMARKS
WACO           SUNNY     95  68  41 VRB6      30.00F HX  99
6HR MIN TEMP:  77; 6HR MAX TEMP:  95;

WACO-TSTC      SUNNY     93  64  38 CALM      30.00F HX  95
WACO-MCGREGOR  SUNNY     97  68  38 VRB6      30.00F HX 102
6HR MIN TEMP:  76; 6HR MAX TEMP:  97;

HILLSBORO      SUNNY     94  68  42 S8        30.01F HX  99
6HR MIN TEMP:  77; 6HR MAX TEMP:  94;

CORSICANA      SUNNY     95  70  44 S7        30.01F HX 101
6HR MIN TEMP:  77; 6HR MAX TEMP:  95;

MEXIA          SUNNY     94  69  44 SW6       30.00F HX  99
6HR MIN TEMP:  74; 6HR MAX TEMP:  94;

CAMERON        SUNNY     94  70  45 SW7       30.01F HX 100
6HR MIN TEMP:  76; 6HR MAX TEMP:  94;

TEMPLE         SUNNY     95  67  39 VRB5      30.01F HX  99
6HR MIN TEMP:  74; 6HR MAX TEMP:  96;

KILLEEN        SUNNY     99  68  36 S5        30.02F HX 104
KILLEEN-SKYLRK SUNNY     94  68  42 VRB3      30.02F HX  98
6HR MIN TEMP:  75; 6HR MAX TEMP:  94;

FORT HOOD      SUNNY     94  66  39 SW7       29.99F HX  96
6HR MIN TEMP:  75; 6HR MAX TEMP:  94;

HAMILTON       SUNNY     95  63  33 S6        30.04F HX  96
6HR MIN TEMP:  75; 6HR MAX TEMP:  95;

$$

TXZ095>097-106>112-122>126-135>138-148>153-164>167-191900-
EAST TEXAS

CITY           SKY/WX    TMP DP  RH WIND       PRES   REMARKS
PARIS          SUNNY     93  76  57 SW12      30.00F HX 105
6HR MIN TEMP:  74; 6HR MAX TEMP:  94;

SULPHUR SPRNGS SUNNY     92  70  48 SW6       30.02F HX  98
6HR MIN TEMP:  78; 6HR MAX TEMP:  92;

GILMER         SUNNY     90  73  57 CALM      30.01F HX  99
6HR MIN TEMP:  76; 6HR MAX TEMP:  91;

MINEOLA        SUNNY     91  72  52 W8        30.01S HX  98
TYLER          SUNNY     91  71  51 VRB6      30.02F HX  97
6HR MIN TEMP:  77; 6HR MAX TEMP:  91;

LONGVIEW       SUNNY     92  76  59 SW5       30.00F HX 104
6HR MIN TEMP:  78; 6HR MAX TEMP:  92;

MARSHALL         N/A     90  71  53 W5        30.03F HX  96
6HR MIN TEMP:  75; 6HR MAX TEMP:  90;

ATHENS         SUNNY     90  68  48 S5        30.00F HX  93
PALESTINE      SUNNY     93  72  49 SW8       30.02F HX 101
JACKSONVILLE   SUNNY     90  73  58 CALM      30.05F HX  98
HENDERSON      SUNNY     91  73  55 W8        30.03F HX 100
6HR MIN TEMP:  75; 6HR MAX TEMP:  91;

CENTER         CLEAR     94  77  57 W3        30.02F HX 107
6HR MIN TEMP:  80; 6HR MAX TEMP:  94;

NACOGDOCHES    SUNNY     91  76  61 W6        30.02F HX 103
6HR MIN TEMP:  77; 6HR MAX TEMP:  91;

LUFKIN         MOSUNNY   92  74  55 VRB6      30.02F HX 101
6HR MIN TEMP:  74; 6HR MAX TEMP:  92;

$$

SUPPLEMENTAL OBSERVATIONS (NWS FORT WORTH AREA)

CITY           SKY/WX    TMP DP  RH WIND       PRES   REMARKS
$$

SUPPLEMENTAL OBSERVATIONS (NWS NORMAN AREA)

CITY           SKY/WX    TMP DP  RH WIND       PRES   REMARKS
GOODLETT         N/A     93  64  37 S7        30.01F HX  95
ODELL            N/A     94  72  49 SW6       30.01F HX 102
CROWELL          N/A     95  68  40 W3G9      30.01F HX  99
KNOX CITY        N/A     96  63  32 S7        30.02S HX  97
SEYMOUR          N/A     95  68  40 SW10      30.01S HX  99
$$

SUPPLEMENTAL OBSERVATIONS (NWS SAN ANGELO AREA)

CITY           SKY/WX    TMP DP  RH WIND       PRES   REMARKS
WEINERT          N/A     95  69  43 SW12      30.02F HX 101
HASKELL          N/A     93  65  40 SW8       30.03F HX  95
THROCKMORTON     N/A     94  72  48 SW6       30.02F HX 102
STAMFORD         N/A     95  69  42 SW9       30.04S HX 100
CLYDE            N/A     92  71  49 SW10      30.08S HX  98
$$

SUPPLEMENTAL OBSERVATIONS (NWS SHREVEPORT AREA)

CITY           SKY/WX    TMP DP  RH WIND       PRES   REMAR


USA.gov is the U.S. government's official web portal to all federal, state and local government web resources and services.